User: anonymous   Login
Location: *
(49.6619°S, 177.4603°W)
Time: 13:32:29
(UTC+00:00)
Language:

SJ 16-02 - Orbit

View from above orbital plane
View from above orbital plane
View from above satellite
View from above satellite

Ground track
Ground track

The orbit data is extracted from the following two-line orbital elements,

1 41634U 16043A   23152.18195179  .00001413  00000-0  15860-3 0  9998
2 41634  75.0021 214.2927 0008580 226.3062 133.7413 14.87545845375484
Epoch (UTC): 01 June 2023 04:22:00
Eccentricity: 0.0008580
inclination: 75.0021°
perigee height: 599 km
apogee height: 611 km
right ascension of ascending node: 214.2927°
argument of perigee: 226.3062°
revolutions per day: 14.87545845
mean anomaly at epoch: 133.7413°
orbit number at epoch: 37548

The dashed part of the orbit path shows where the satellite is in the earth's shadow,  

DLR